CZ-3C DEB, 39343

Orbit data source: Space-Track

CZ-3C DEB, 39343 is space debris in HEO originally from a launch on Sun, 31 Oct 2010 UTC launched from the Xichang Space Center, China (XSC). Debris objects in space refer to the collection of defunct objects orbiting the Earth. Examples of debris include non-operational satellites, rocket bodies, and fragments generated from explosions, collisions, or faulty payload assembly.

Not visible in the next 10 days
Identifier
39343, 2010-057H
Orbit
HEO
Country
Flag of CNCN / PRC
Related business
Manufacturer
CALT
Mission
Spacecraft
Bus & Motor
Unknown
Mass
Unknown
Launch date (UTC)
2010-10-31 (15 years ago)
Launch vehicle
Unknown
Launch site
Xichang Space Center, China (XSC)
Object type
Payload
Rocket body
Debris
Shape & HBR
Unknown shape, 0.1 m
Radar Cross Section
Medium (>0.1 m² and <1 m²)

Expand to show TLE details & history
Last TLE update: 5 days ago

TLE from 5 days ago
0 CZ-3C DEB
1 39343U 10057H   25288.63022997  .00004223  00000-0  33186-1 0  9991
2 39343  21.3696 117.2439 7132152  64.7462 350.9485  2.32662957102186
Epoch: 2025-10-15T15:07Z
TLE epoch observation values (Epoch: 2025-10-15T15:07:31.869Z)
Latitude
-0.00002°
Longitude
-133.98708°
Altitude
2,659.366 km
Speed
8.464 km/s
True Right ascension
07h 49m 11s
True Declination
0° 00' 00"
Sunlit
Object was in daylight at epoch
Visualization orbit readout
Latitude
Unknown
Longitude
Unknown
Altitude
Unknown
Speed
Unknown
Apparent Right ascension
Unknown
Apparent Declination
Unknown
Sunlit
N/A
Visualization observer readout
Local Sidereal Time
21:39:49
Azimuth
Unknown
Elevation
Unknown
Doppler factor
Unknown
Orbital elements
Apogee altitude
34,844.843 km
Perigee altitude
522.411 km
Semi-major axis
24,061.764 km
Eccentricity
0.71322
Inclination
21.3696°
RAAN
117.2439°
Arg. of periapsis
64.7462°
True anomaly
296.08916°
Mean anomaly
350.9485°
Eccentric anomaly
331.36558°
Mean motion
0.5815 °/min
Orbital period
619.09 mins
BSTAR
0.033186
Loading maneuver chart data...
Computing Atmospheric mass density...
Loading historical data...
Loading historical data...
Loading historical data...
Loading historical data...
Loading historical data...
Loading historical data...
Loading historical data...

Documentation

Showing up to 5 results
|